Regional Weather Roundup
Issued by NWS

Home | Current Version | Previous Version | Graphics & Text | Print | Product List | Glossary Off
Versions: 1 2 3 4 5 6 7 8 9 10 11 12 13 14 15 16 17 18 19 20 21 22 23 24 25 26 27 28 29 30 31 32 33 34 35 36 37 38 39 40 41 42 43 44 45 46 47 48 49 50

000
ASUS43 KTOP 281508
RWRKS

WEATHER ROUNDUP FOR KANSAS
NATIONAL WEATHER SERVICE GOODLAND KS
900 AM CST FRI NOV 28 2014

NOTE:  "FAIR" INDICATES FEW OR NO CLOUDS BELOW 12,000 FEET WITH NO
SIGNIFICANT WEATHER AND/OR OBSTRUCTIONS TO VISIBILITY.

KSZ001>006-013>018-027>032-041>047-281600-
NORTHWEST KANSAS

CITY           SKY/WX    TMP DP  RH WIND       PRES   REMARKS
GOODLAND       MOSUNNY   49  20  31 SW8       29.90F
HAYS           MOSUNNY   36  23  60 W6        29.90S
HILL CITY      SUNNY     40  26  57 SW5       29.88F
RUSSELL        MOSUNNY   40  29  64 SW5       29.88S
$$

KSZ061>065-074>080-084>089-281600-
SOUTHWEST KANSAS

CITY           SKY/WX    TMP DP  RH WIND       PRES   REMARKS
DODGE CITY     PTSUNNY   40  26  57 SW7       29.94S
ELKHART          N/A     42  21  43 SW2         N/A
GARDEN CITY    MOSUNNY   34  26  72 W7        29.94S
GREAT BEND     MOSUNNY   39  27  60 SW13      29.92F WCI  32
LIBERAL        PTSUNNY   39  28  65 CALM      29.99S
PRATT          SUNNY     41  32  70 SW9       29.95F
$$

KSZ066>073-081>083-090>101-281600-
SOUTHEAST KANSAS

CITY           SKY/WX    TMP DP  RH WIND       PRES   REMARKS
CHANUTE        SUNNY     42  29  59 S18G26    30.04S
COFFEYVILLE    SUNNY     43  29  57 S20G26    30.07S
HUTCHINSON     SUNNY     40  29  64 S13       29.96F WCI  32
MEDICINE LODGE   N/A     38  30  73 S7        29.98F
NEWTON         SUNNY     41  27  56 SW20      29.98S
PARSONS        SUNNY     44  29  55 S13G21    30.07S
WICHITA INTL   MOSUNNY   43  29  57 S12       30.00S
WICHITA JABRA  SUNNY     43  29  57 S13       29.99S
WICHITA MCCONL SUNNY     43  29  57 SW14      30.00S
WINFIELD       SUNNY     44  30  57 S13       30.04S
$$

KSZ007>012-019>026-033>040-048>060-102>105-281600-
NORTHEAST KANSAS

CITY           SKY/WX    TMP DP  RH WIND       PRES   REMARKS
CONCORDIA      MOSUNNY   40  29  64 SW5       29.88F
EMPORIA        SUNNY     37  26  64 S16       29.96F WCI  28
LAWRENCE       SUNNY     40  26  57 S10       29.99F WCI  33
MANHATTAN      SUNNY     40  28  62 S7        29.93F
MARYSVILLE     SUNNY     36  28  75 S8        29.89F
OLATHE IND     SUNNY     40  27  59 S15       29.99F WCI  32
OLATHE EXE     SUNNY     39  27  62 S17G23    29.98F WCI  30
SALINA         SUNNY     41  29  62 S16       29.93S
TOPEKA BILLARD SUNNY     40  26  57 S10G18    29.97F WCI  33
TOPEKA FORBES  SUNNY     40  26  57 S15       29.96F WCI  32
$$



USA.gov is the U.S. government's official web portal to all federal, state and local government web resources and services.